Volver al catálogo

STARLINK-35851

ActivoComunicacionesVLEO
NORAD 66356·PAYLOAD·🇺🇸 United States

Lanzado Nov 6, 2025 desde Vandenberg Space Force Base

Loading…

Próximos Pases (próximas 24 horas)

TLE

ActualizadoSource: CelesTrak SupGP

Época: Sep 14, 2026, 23:14 UTC

1 66356C 25254J   26257.96854167  .00039832  00000+0  11770-2 0  2571
2 66356  53.1574  71.2716 0001053  78.1534 271.5799 15.34366944    10

Sigue STARLINK-35851 en tiempo real con AllMySat

Download on the App Store